[[{"header":{"parameterUnit":"m.s-1","parameterCategory":1,"la1":30.2991,"la2":30.254,"lo1":-89.0895,"lo2":-89.0444,"dy":0.0017,"dx":0.0017,"nx":28,"ny":28,"refTime":"2025-03-23T21:00:00:Z","depth":0,"parameterNumber":2,"parameterNumberName":"U-component_of_WINDS"},"data":[0,0,0,0,0,0,0,0,0,0,0,0,0,0,0,0,0,0,0,0,0,0,0,0,0,0,0,0,0,0,0,0,0,0,0,0,0,0,0,0,0,0,0,0,0,0,0,0,0,0,0,0,0,0,0,0,0,0,3.2451,3.245,0,3.2396,3.2395,3.2395,3.2332,3.2331,3.233,3.2329,3.2274,3.2273,3.2272,0,0,0,0,0,0,0,0,0,0,0,0,0,3.25,3.2499,3.2451,3.245,3.245,3.2396,3.2395,3.2395,3.2332,3.2331,3.233,3.2329,3.2274,3.2273,3.2272,0,0,0,0,0,0,0,0,0,0,0,0,0,3.2465,3.2499,3.2451,3.2412,3.2408,3.2396,3.2395,3.2394,3.2333,3.2331,3.233,3.2329,3.2274,3.2273,3.2272,3.2294,0,0,3.2269,3.2269,0,0,0,0,0,0,0,0,3.2467,3.2464,3.2418,3.2415,3.241,3.2369,3.2392,3.2361,3.2333,3.2361,3.2329,3.2328,3.2307,3.2303,3.2296,3.2292,3.2289,3.2269,3.2269,3.2268,3.2268,0,0,0,0,0,0,0,3.247,3.2466,3.2429,3.2418,3.2413,3.2397,3.239,3.2386,3.2342,3.2359,3.2354,3.2348,3.2304,3.2297,3.2294,3.2288,3.2269,3.2268,3.2268,3.2268,3.2296,3.2297,0,0,0,0,0,0,3.2478,3.2468,3.2431,3.2427,3.2436,3.2397,3.239,3.2384,3.2342,3.2335,3.235,3.2346,3.2299,3.2295,3.2292,3.2312,3.2268,3.2267,3.2267,3.2294,3.2296,3.2297,0,0,0,0,0,0,3.248,3.2476,3.2433,3.2446,3.244,3.2398,3.2392,3.2384,3.2376,3.2335,3.2327,3.235,3.2298,3.2293,3.2293,3.2309,3.2267,3.2266,3.2293,3.2295,3.2297,3.2355,0,0,0,0,0,0,3.2481,3.2476,3.2485,3.2447,3.2439,3.2436,3.2393,3.2384,3.2375,3.2369,3.2334,3.2327,3.2296,3.2295,3.2292,3.2307,3.2265,3.2291,3.2294,3.2296,3.2351,3.2358,3.2365,0,0,0,0,0,3.2483,3.2504,3.2486,3.2482,3.2449,3.2437,3.2433,3.2397,3.2376,3.2384,3.2357,3.2328,3.2308,3.2295,3.2292,3.2307,3.229,3.2293,3.2296,3.2348,3.2357,3.2364,0,0,0,0,0,0,3.2546,3.2499,3.2478,3.2487,3.2467,3.2427,3.2436,3.2409,3.2394,3.2389,3.2346,3.2338,3.2343,3.2325,3.2312,3.2324,3.2295,3.2297,3.2335,3.2344,3.235,3.2354,3.2265,0,0,0,0,0,3.2561,3.2556,3.2515,3.2527,3.2518,3.2479,3.2472,3.2446,3.2423,3.2414,3.2388,3.2367,3.2355,3.2349,3.2336,3.2348,3.2338,3.2357,3.2363,3.2369,3.2371,3.2373,3.238,3.2307,3.2307,3.2307,0,0,3.2592,3.2565,3.2565,3.2539,3.252,3.2514,3.2472,3.2469,3.2463,3.2414,3.2411,3.2391,3.2364,3.237,3.2371,3.2355,3.2389,3.2373,3.2378,3.2377,3.2377,3.2384,3.239,3.2309,3.2309,3.2308,0,0,3.2645,3.2626,3.2632,3.2613,3.2585,3.2558,3.256,3.2523,3.2507,3.2504,3.2466,3.2459,3.2442,3.2423,3.2411,3.2454,3.2425,3.2451,3.2486,3.2488,3.2494,3.2499,3.2511,3.2516,3.2454,3.2454,3.2454,0,3.2687,3.2677,3.2639,3.2637,3.2625,3.258,3.2585,3.2569,3.2538,3.253,3.2513,3.2487,3.2466,3.2465,3.2475,3.2468,3.2467,3.2455,3.2496,3.2501,3.2504,3.2516,3.2521,3.2457,3.2457,3.2456,3.2456,0,3.2729,3.2722,3.2731,3.2701,3.269,3.2693,3.2653,3.2647,3.2622,3.2597,3.2592,3.2565,3.2545,3.2543,3.2519,3.2537,3.2528,3.2504,3.2473,3.2515,3.2525,3.2529,3.2462,3.246,3.2459,3.2459,0,0,3.282,3.2767,3.2771,3.2755,3.2719,3.2713,3.2712,3.2691,3.2685,3.2665,3.2661,3.2646,3.2623,3.2609,3.2583,3.2585,3.2617,3.256,3.2559,3.2569,3.2632,3.2648,3.2654,3.2598,3.2599,3.2599,3.2633,0,3.2865,3.286,3.2824,3.2828,3.282,3.2776,3.2774,3.2751,3.2727,3.2716,3.269,3.2678,3.265,3.2641,3.2641,3.2613,3.2628,3.261,3.2592,3.2592,3.2598,3.266,3.2678,3.2711,3.2637,3.2638,3.2638,0,3.2916,3.2897,3.2901,3.2862,3.2857,3.2857,3.2833,3.2824,3.2796,3.2778,3.2762,3.2731,3.2725,3.2697,3.2688,3.2676,3.2666,3.2651,3.2651,3.2647,3.2616,3.2655,3.2722,3.2726,3.2644,3.2644,3.2643,0,3.2979,3.2955,3.2953,3.2942,3.2897,3.2897,3.2878,3.2849,3.2838,3.2817,3.2809,3.2789,3.2777,3.2761,3.2725,3.2709,3.2718,3.2688,3.2701,3.2702,3.2705,3.2705,3.2769,3.2702,3.2702,3.2702,3.2702,0,3.3032,3.3035,3.298,3.2979,3.2981,3.2939,3.2942,3.2919,3.2892,3.2885,3.2845,3.2839,3.2792,3.278,3.2752,3.2746,3.2742,3.2726,3.2718,3.2728,3.273,3.272,3.2716,3.2703,3.2703,3.2703,3.2702,0,3.3102,3.3066,3.306,3.3018,3.3007,3.301,3.2973,3.2969,3.2942,3.2932,3.2928,3.2885,3.2868,3.2831,3.2804,3.2785,3.2785,3.2773,3.2795,3.2789,3.2804,3.2802,3.2862,3.2867,3.28,3.2801,3.2801,0,3.3137,3.3138,3.3095,3.3087,3.3069,3.3057,3.3045,3.3003,3.2992,3.2959,3.2959,3.2938,3.292,3.2895,3.2861,3.2839,3.2824,3.2847,3.2821,3.283,3.2821,3.2821,3.282,3.2852,3.2853,3.2854,3.2855,0,3.3201,3.3183,3.3167,3.3144,3.3131,3.3111,3.3089,3.3084,3.3037,3.3026,3.3008,3.2994,3.2965,3.2945,3.2918,3.2897,3.2867,3.2863,3.2864,3.2874,3.2886,3.2877,3.2808,3.2862,3.2861,3.286,3.286,3.286,3.3253,3.3251,3.3219,3.3202,3.3181,3.3161,3.3154,3.3125,3.311,3.3083,3.3059,3.3043,3.3012,3.2972,3.2954,3.2939,3.2924,3.2927,3.2927,3.2928,3.2931,3.289,3.2934,3.2934,3.2934,3.2933,3.2933,0,3.3313,3.329,3.3275,3.3245,3.3231,3.3204,3.3177,3.3167,3.3153,3.3127,3.3109,3.3086,3.3065,3.3029,3.3005,3.3,3.2985,3.2995,3.2994,3.2989,3.2947,3.2947,3.3007,3.3007,3.3007,3.3007,3.3007,3.3007,3.3343,3.3336,3.3314,3.3296,3.3273,3.3256,3.3243,3.3223,3.3201,3.3178,3.316,3.3137,3.3106,3.3079,3.3058,3.3047,3.3039,3.3053,3.3038,3.2999,3.2992,3.2986,3.2985,3.3052,3.3052,3.308,3.308,3.3081]},{"header":{"parameterUnit":"m.s-1","parameterCategory":1,"la1":30.2991,"la2":30.254,"lo1":-89.0895,"lo2":-89.0444,"dy":0.0017,"dx":0.0017,"nx":28,"ny":28,"refTime":"2025-03-23T21:00:00:Z","depth":0,"parameterNumber":3,"parameterNumberName":"V-component_of_WINDS"},"data":[0,0,0,0,0,0,0,0,0,0,0,0,0,0,0,0,0,0,0,0,0,0,0,0,0,0,0,0,0,0,0,0,0,0,0,0,0,0,0,0,0,0,0,0,0,0,0,0,0,0,0,0,0,0,0,0,0,0,3.6749,3.6747,0,3.6546,3.6543,3.6541,3.6518,3.652,3.6522,3.6524,3.63,3.6292,3.6285,0,0,0,0,0,0,0,0,0,0,0,0,0,3.7101,3.7095,3.6749,3.6746,3.6744,3.6546,3.6543,3.654,3.6518,3.652,3.6523,3.6525,3.6303,3.6293,3.6284,0,0,0,0,0,0,0,0,0,0,0,0,0,3.6928,3.7093,3.6749,3.6709,3.6704,3.6546,3.6543,3.6539,3.6517,3.652,3.6523,3.6526,3.6306,3.6294,3.6283,3.6147,0,0,3.6246,3.6241,0,0,0,0,0,0,0,0,3.6937,3.6915,3.6718,3.6712,3.6705,3.6561,3.6585,3.6407,3.6516,3.6587,3.6524,3.6528,3.6383,3.6365,3.632,3.6136,3.6126,3.6245,3.6238,3.6233,3.623,0,0,0,0,0,0,0,3.695,3.6923,3.6668,3.6715,3.6707,3.6696,3.6675,3.6551,3.6469,3.6581,3.6579,3.6557,3.638,3.6331,3.6314,3.6123,3.6246,3.6235,3.6228,3.6223,3.5811,3.5807,0,0,0,0,0,0,3.6971,3.6933,3.6674,3.6662,3.6832,3.6687,3.6663,3.6604,3.6471,3.6454,3.6554,3.6556,3.635,3.6328,3.6306,3.6132,3.6233,3.6222,3.6215,3.5815,3.581,3.5806,0,0,0,0,0,0,3.6979,3.6949,3.6683,3.6797,3.6762,3.6678,3.6611,3.6598,3.6549,3.6451,3.6434,3.652,3.6351,3.6323,3.6186,3.6124,3.6217,3.6206,3.5819,3.5813,3.5808,3.5787,0,0,0,0,0,0,3.6989,3.6952,3.6903,3.6796,3.6757,3.657,3.6607,3.6592,3.653,3.6531,3.6414,3.6397,3.6352,3.6204,3.6174,3.611,3.6196,3.5824,3.5817,3.581,3.5793,3.5782,3.5772,0,0,0,0,0,3.7002,3.6903,3.69,3.6869,3.6695,3.6567,3.6544,3.6498,3.6526,3.6472,3.6409,3.6401,3.6138,3.619,3.6156,3.6087,3.5828,3.5819,3.581,3.5798,3.5784,3.5772,0,0,0,0,0,0,3.6998,3.6888,3.6884,3.6749,3.6668,3.6564,3.6495,3.6485,3.6391,3.6395,3.6337,3.6311,3.6174,3.6118,3.6178,3.5946,3.5985,3.5969,3.5986,3.5973,3.5962,3.5975,3.6187,0,0,0,0,0,3.6983,3.6895,3.6801,3.669,3.6651,3.6581,3.6523,3.6495,3.6407,3.6371,3.6298,3.6208,3.6104,3.6036,3.5936,3.5788,3.5757,3.5723,3.5713,3.5705,3.5689,3.5598,3.558,3.5778,3.5778,3.5778,0,0,3.6947,3.6877,3.6823,3.6688,3.6622,3.6524,3.6551,3.6449,3.6373,3.6353,3.6219,3.6163,3.6058,3.5913,3.5846,3.5862,3.5629,3.5694,3.5688,3.5676,3.5588,3.5569,3.5552,3.5772,3.5773,3.5774,0,0,3.6832,3.6774,3.6672,3.6607,3.6509,3.6463,3.6439,3.6336,3.6298,3.6165,3.6146,3.6054,3.588,3.5804,3.5742,3.56,3.5585,3.5569,3.551,3.5423,3.5407,3.5393,3.5333,3.5314,3.5555,3.5555,3.5555,0,3.6798,3.6657,3.662,3.6517,3.6454,3.6439,3.6331,3.6268,3.614,3.6094,3.6117,3.5894,3.5824,3.5657,3.5622,3.5577,3.554,3.5578,3.5414,3.5399,3.5385,3.5327,3.5306,3.5553,3.5553,3.5553,3.5554,0,3.6617,3.6519,3.6448,3.6329,3.626,3.6155,3.6096,3.603,3.6009,3.5959,3.5818,3.5734,3.5613,3.5574,3.5551,3.5402,3.5415,3.5427,3.5463,3.5364,3.5309,3.5287,3.555,3.5551,3.5551,3.5552,0,0,3.6487,3.6352,3.6325,3.6269,3.6161,3.6081,3.5974,3.5862,3.5801,3.5715,3.5617,3.5471,3.548,3.541,3.5379,3.5304,3.5186,3.5323,3.532,3.5293,3.5008,3.4993,3.4969,3.518,3.5176,3.5173,3.5014,0,3.6353,3.6167,3.613,3.5965,3.5869,3.5854,3.5759,3.5679,3.563,3.5537,3.5481,3.5375,3.54,3.5357,3.5283,3.5217,3.5126,3.5229,3.508,3.5075,3.5098,3.4941,3.4926,3.478,3.4993,3.4989,3.4987,0,3.617,3.6083,3.591,3.5811,3.5769,3.5686,3.5577,3.5493,3.5399,3.5368,3.5291,3.5268,3.5148,3.5198,3.5028,3.5098,3.5036,3.4994,3.4987,3.4964,3.5018,3.4905,3.4733,3.4707,3.4954,3.4956,3.4959,0,3.6082,3.5922,3.5796,3.575,3.5634,3.5574,3.5522,3.5433,3.5366,3.5271,3.5225,3.5116,3.5053,3.4967,3.4911,3.4954,3.4743,3.4789,3.4706,3.4706,3.4654,3.4656,3.446,3.463,3.4631,3.4631,3.4632,0,3.5931,3.5823,3.5755,3.5676,3.5553,3.5512,3.5389,3.5336,3.5257,3.5163,3.5144,3.5054,3.4992,3.4892,3.4849,3.471,3.4684,3.4649,3.4637,3.4646,3.4649,3.4597,3.4602,3.4625,3.4626,3.4628,3.4629,0,3.5808,3.576,3.562,3.5524,3.5497,3.541,3.5323,3.5243,3.5197,3.5077,3.5046,3.4969,3.485,3.479,3.4642,3.4612,3.4452,3.4451,3.4485,3.4478,3.4394,3.4399,3.415,3.4111,3.4316,3.4314,3.4313,0,3.571,3.5628,3.5524,3.5462,3.541,3.5311,3.5244,3.52,3.5129,3.5016,3.4947,3.483,3.4732,3.4542,3.4468,3.4353,3.4342,3.4264,3.4324,3.4333,3.4329,3.4331,3.4318,3.4249,3.4247,3.4246,3.4244,0,3.5538,3.5519,3.5427,3.5324,3.5247,3.5163,3.508,3.5029,3.497,3.4891,3.4772,3.4697,3.4547,3.4426,3.4305,3.4244,3.4229,3.4228,3.42,3.4202,3.4221,3.4201,3.4445,3.4231,3.4232,3.4233,3.4234,3.4234,3.5418,3.5342,3.5257,3.5153,3.5087,3.501,3.4929,3.4873,3.4776,3.4652,3.4632,3.4503,3.4408,3.4245,3.4181,3.4075,3.4091,3.4054,3.4042,3.4031,3.4022,3.4248,3.4054,3.4054,3.4055,3.4055,3.4055,0,3.5237,3.5183,3.5089,3.4975,3.4892,3.4897,3.4805,3.4731,3.4621,3.4537,3.4442,3.4302,3.4185,3.4105,3.3984,3.3914,3.3904,3.3883,3.3882,3.3866,3.402,3.4051,3.3892,3.3892,3.3892,3.3893,3.3893,3.3893,3.5133,3.5002,3.4972,3.4806,3.4751,3.4629,3.4575,3.4501,3.4433,3.4279,3.4184,3.4136,3.4049,3.3922,3.3813,3.3791,3.3743,3.372,3.3697,3.384,3.3856,3.3872,3.3901,3.3713,3.3713,3.3551,3.3549,3.3548]}]]